Starlink 3826

operational
NORAD ID: 52347 Int'l Des: 2022-045 Owner: SPXS Country: US Constellation: starlink
LEOCIRCULAR

关于 Starlink 3826

正在加载描述...

实时位置

正在加载3D地球...

即将过境

高度历史

Altitude vs Time

uPlot chart will show altitude changes over time

两行轨道根数

1 52347U 22045S 25298.12589913 .00000340 00000-0 39451-4 0 9991
2 52347 53.2166 87.6994 0001273 89.1655 270.9483 15.08838451195311
Epoch: Oct 25, 2025 • Age: 22 hours

当前状态

高度 559.0 km
速度 7.58 km/s
星下点 -52.73°S, 42.45°W
发射日期 Apr 29, 2022
运行时间 3.4 years
类型 internet

技术详情

分类 Payload
质量 297.00 kg
干质量 275.00 kg
总质量 297.00 kg
长度 0.20 m
直径 2.80 m
跨度 9.00 m
形状 Box + pan
制造商 SPXS
平台类型 Starlink
阶段状态 In Orbit
所有者/国家 SPXS/US

大型星座

Loading constellations...